Weather History for KESN - December, 2013

Change the Weather History Date:

Saturday, December 21, 2013

  Actual Average Record
Temperature  
Mean Temperature 60 °F -  
Max Temperature 68 °F 47 °F 68 °F (2013)
Min Temperature 53 °F 31 °F 12 °F (1955)
Degree Days  
Heating Degree Days 4    
Growing Degree Days 10 (Base 50)    
Moisture  
Dew Point 53 °F    
Average Humidity 77    
Maximum Humidity 93    
Minimum Humidity 60    
Precipitation  
Precipitation 0.00 in - - ()
Sea Level Pressure  
Sea Level Pressure 30.05 in    
Wind  
Wind Speed 10 mph (SW)    
Max Wind Speed 17 mph    
Max Gust Speed 28 mph    
Visibility 10 miles    
Events      
Averages and records for this station are not official NWS values.
T = Trace of Precipitation, MM = Missing Value Source: NWS Daily Summary

Daily Weather History Graph

Daily Weather History Graph

Search for Another Location

Airport or City:

Trip Planner

Search our weather history database for the weather conditions in past years. The results will help you decide how hot, cold, wet, or windy it might be!

Date:

Astronomy

Dec. 21, 2013 Rise Set
Actual Time 7:19 AM EST 4:46 PM EST
Civil Twilight 6:49 AM EST 5:15 PM EST
Nautical Twilight 6:15 AM EST 5:49 PM EST
Astronomical Twilight 5:43 AM EST 6:21 PM EST
Moon 8:58 PM EST (12/21) 9:46 AM EST (12/21)
Length of Visible Light 10h 26m
Length of Day
9h 26m
Waning Gibbous, 84% of the Moon is Illuminated
Dec 21
Waning Gibbous
Dec 25
Last Quarter
Jan 1
New
Jan 7
First Quarter
Jan 15
Full

Hourly Weather History & Observations

Time (EST) Temp. Dew Point Humidity Pressure Visibility Wind Dir Wind Speed Gust Speed Precip Events Conditions
12:00 AM 57.6 °F 51.4 °F 80% 30.09 in 10.0 mi WSW 11.5 mph - N/A   Clear
12:20 AM 57.6 °F 51.3 °F 79% 30.08 in 10.0 mi WSW 11.5 mph 17.3 mph N/A   Clear
12:40 AM 57.6 °F 50.9 °F 78% 30.08 in 10.0 mi WSW 9.2 mph - N/A   Clear
1:01 AM 57.6 °F 50.4 °F 77% 30.08 in 10.0 mi WSW 10.4 mph - N/A   Clear
1:21 AM 57.6 °F 50.0 °F 76% 30.07 in 10.0 mi WSW 8.1 mph - N/A   Clear
1:41 AM 57.4 °F 49.6 °F 75% 30.07 in 10.0 mi WSW 6.9 mph - N/A   Clear
2:01 AM 57.2 °F 49.3 °F 75% 30.07 in 10.0 mi WSW 5.8 mph - N/A   Clear
2:21 AM 56.7 °F 48.9 °F 75% 30.07 in 10.0 mi WSW 6.9 mph - N/A   Clear
2:41 AM 55.4 °F 48.7 °F 78% 30.07 in 10.0 mi SW 9.2 mph - N/A   Clear
3:01 AM 56.1 °F 49.1 °F 77% 30.07 in 10.0 mi SW 8.1 mph - N/A   Clear
3:21 AM 56.8 °F 49.1 °F 75% 30.06 in 10.0 mi SW 9.2 mph - N/A   Scattered Clouds
3:41 AM 56.3 °F 49.1 °F 77% 30.06 in 10.0 mi SW 9.2 mph - N/A   Clear
4:01 AM 55.8 °F 49.1 °F 78% 30.06 in 10.0 mi SW 8.1 mph - N/A   Clear
4:21 AM 56.3 °F 49.3 °F 77% 30.06 in 10.0 mi SW 4.6 mph - N/A   Clear
4:41 AM 53.8 °F 49.1 °F 84% 30.06 in 10.0 mi SW 6.9 mph - N/A   Clear
5:01 AM 54.5 °F 49.5 °F 83% 30.07 in 10.0 mi SW 4.6 mph - N/A   Clear
5:21 AM 55.0 °F 49.5 °F 81% 30.07 in 10.0 mi WSW 4.6 mph - N/A   Clear
5:53 AM 55.4 °F 50.0 °F 82% 30.07 in 10.0 mi SSW 5.8 mph - N/A   Overcast
6:53 AM 57.2 °F 50.0 °F 77% 30.08 in 10.0 mi SSW 5.8 mph - N/A   Mostly Cloudy
7:53 AM 57.2 °F 51.8 °F 82% 30.08 in 10.0 mi SSW 9.2 mph - N/A   Mostly Cloudy
8:53 AM 57.2 °F 51.8 °F 82% 30.08 in 10.0 mi SSW 9.2 mph - N/A   Overcast
9:53 AM 59.0 °F 51.8 °F 77% 30.08 in 10.0 mi SSW 11.5 mph 17.3 mph N/A   Scattered Clouds
10:50 AM 64.4 °F 53.6 °F 68% 30.06 in 10.0 mi SW 17.3 mph 24.2 mph N/A   Clear
11:47 AM 68.0 °F 53.6 °F 60% 30.04 in 10.0 mi SW 15.0 mph 27.6 mph N/A   Clear
12:47 PM 66.2 °F 53.6 °F 64% 30.02 in 10.0 mi SW 15.0 mph 27.6 mph N/A   Clear
1:45 PM 68.0 °F 53.6 °F 60% 30.00 in 10.0 mi SSW 12.7 mph 23.0 mph N/A   Scattered Clouds
2:50 PM 68.0 °F 53.6 °F 60% 30.00 in 10.0 mi SSW 13.8 mph 23.0 mph N/A   Partly Cloudy
3:50 PM 66.2 °F 55.4 °F 68% 29.99 in 10.0 mi South 11.5 mph 19.6 mph N/A   Scattered Clouds
4:50 PM 64.4 °F 55.4 °F 73% 30.00 in 10.0 mi South 10.4 mph 17.3 mph N/A   Scattered Clouds
5:50 PM 62.6 °F 55.4 °F 77% 30.01 in 10.0 mi SSW 12.7 mph 23.0 mph N/A   Clear
6:50 PM 62.6 °F 55.4 °F 77% 30.01 in 10.0 mi South 9.2 mph - N/A   Clear
7:50 PM 62.6 °F 57.2 °F 82% 30.02 in 10.0 mi SSW 11.5 mph 17.3 mph N/A   Clear
8:50 PM 64.4 °F 57.2 °F 77% 30.02 in 10.0 mi SSW 10.4 mph 17.3 mph N/A   Clear
9:43 PM 65.1 °F 58.5 °F 79% 30.02 in 10.0 mi SSW 12.7 mph - N/A   Clear
10:03 PM 64.6 °F 58.6 °F 81% 30.02 in 10.0 mi SSW 10.4 mph - N/A   Clear
10:23 PM 63.9 °F 58.6 °F 83% 30.02 in 10.0 mi SSW 10.4 mph - N/A   Clear
10:43 PM 62.4 °F 58.1 °F 86% 30.03 in 10.0 mi SSW 8.1 mph - N/A   Clear
11:03 PM 61.5 °F 58.1 °F 89% 30.02 in 10.0 mi South 8.1 mph - N/A   Clear
11:23 PM 61.3 °F 58.6 °F 91% 30.01 in 10.0 mi South 11.5 mph - N/A   Clear
11:43 PM 61.3 °F 59.4 °F 93% 30.01 in 10.0 mi South 9.2 mph - N/A   Clear